Wind_Speed
15 14 14 13 12 12 12 12 12 13 13 13 13 13 13 13 14 14 14 15 15 16 16 17 17 17 17 17 17 16 16 16 16 16 17 17 18 18 18 18 18 18 18
15 14 14 13 13 12 12 12 12 13 13 13 13 14 14 15 15 15 16 16 16 17 17 17 18 18 18 18 18 18 18 17 17 17 18 18 18 18 18 19 19 19 19
16 15 15 14 13 12 12 12 12 13 13 14 14 15 15 15 16 16 16 16 17 17 17 17 18 18 18 18 18 18 18 18 18 18 18 18 18 19 19 19 19 20 20
18 16 15 15 14 13 13 13 13 13 14 14 14 15 15 15 15 16 16 16 17 17 17 17 18 17 17 17 17 17 18 18 18 18 18 18 18 19 19 19 19 20 20
19 18 17 16 15 14 14 14 14 14 14 14 14 14 15 15 15 16 16 17 17 17 17 18 17 18 18 18 18 18 18 18 18 18 18 18 19 19 19 19 20 20 20
21 19 18 17 16 15 15 15 14 14 14 15 15 15 15 16 16 17 17 17 18 18 18 18 18 18 19 18 18 18 18 18 18 17 18 18 19 19 19 19 19 19 20
22 21 20 19 18 16 16 15 15 15 15 16 16 16 17 17 17 18 19 19 19 19 19 19 19 19 19 19 18 18 18 17 17 17 18 18 18 18 19 19 19 20 20
23 23 22 21 20 18 17 17 16 16 17 17 17 18 18 18 19 19 20 20 20 19 19 18 18 18 18 18 17 17 17 17 17 17 17 17 18 18 19 19 20 20 21
25 25 24 23 22 21 20 19 18 18 18 19 19 19 19 20 20 20 20 20 20 19 19 18 18 18 18 18 17 17 17 16 16 16 17 17 18 18 19 19 20 21 21
27 27 26 24 24 23 22 21 20 20 20 20 21 21 20 21 21 21 21 20 20 19 19 18 18 18 17 17 17 17 16 16 16 16 17 17 18 18 19 19 20 21 22
30 29 28 26 25 25 24 23 22 22 22 22 22 22 21 21 21 21 21 21 20 20 19 19 18 18 17 17 16 16 16 16 16 16 17 17 18 18 19 20 20 21 22
31 30 29 28 27 26 25 25 24 24 23 23 23 23 22 22 22 22 21 21 21 20 20 19 19 18 17 17 16 16 16 16 16 16 17 17 18 19 20 20 21 21 22
33 32 30 30 29 28 27 27 26 26 25 25 25 24 23 23 23 23 22 22 22 21 21 20 20 19 18 18 17 17 17 17 16 17 18 18 19 20 20 21 21 22 22
34 33 32 31 30 30 29 28 28 28 27 27 26 25 25 24 24 24 23 23 23 23 22 22 21 21 20 20 19 19 19 18 18 18 19 19 20 21 21 22 22 23 23
35 34 33 32 31 31 30 30 30 29 29 28 27 27 26 26 25 25 25 25 25 24 24 24 23 22 22 22 22 21 21 21 20 20 20 21 21 22 23 23 24 24 25
36 35 34 33 32 32 31 31 31 31 30 30 29 28 27 27 27 27 27 26 27 27 26 26 26 25 25 25 24 24 23 23 23 22 22 23 23 23 24 25 25 26 26
37 35 34 34 33 33 32 32 32 31 31 30 30 29 29 29 29 29 29 29 29 29 29 29 29 28 28 28 28 27 27 26 26 25 25 25 26 26 26 27 27 28 28
37 36 35 34 34 33 33 33 32 32 32 31 31 31 31 31 31 31 32 32 32 32 32 32 32 32 31 31 31 31 30 30 29 29 28 27 28 28 29 29 29 30 30
37 36 36 35 34 34 34 34 33 33 33 33 33 33 33 34 34 34 34 35 35 35 35 35 35 35 35 35 35 34 34 33 33 32 32 31 31 31 31 32 32 32 32
38 37 36 36 35 35 35 35 34 34 34 35 35 35 36 36 37 37 37 38 38 38 38 38 39 39 39 39 39 38 38 37 37 36 36 35 35 34 34 34 34 35 35
38 37 37 37 36 36 36 36 35 35 36 37 37 38 38 39 39 39 40 40 41 41 41 41 41 42 42 43 43 42 42 41 40 39 39 39 39 38 37 37 37 37 37
38 38 38 38 38 37 37 37 37 37 37 38 39 39 40 41 42 42 42 42 43 43 44 44 44 45 45 46 47 47 46 45 44 43 43 43 42 42 41 40 40 40 40
39 38 38 38 39 38 38 38 39 39 39 39 40 41 42 43 44 44 44 45 45 46 46 46 47 48 48 49 50 50 50 48 48 47 46 46 46 45 44 44 44 43 43
40 39 39 38 39 39 39 39 40 40 40 41 42 42 43 44 44 45 46 46 47 48 48 49 50 51 52 52 53 53 53 53 52 50 50 49 49 48 48 48 47 47 46
40 39 39 39 39 39 40 40 40 41 41 41 42 43 43 44 45 46 46 47 48 49 50 52 53 54 54 55 56 55 56 56 56 55 54 53 52 51 51 51 50 50 50
39 39 39 39 39 39 40 40 40 41 41 42 42 43 43 44 45 46 47 48 49 51 52 54 55 56 57 58 58 58 58 59 58 58 58 56 55 54 54 53 52 52 51
Wind_Direction
236 240 244 248 252 255 257 260 263 266 269 273 276 279 282 285 289 292 295 296 297 298 299 301 302 302 303 302 301 301 301 302 302 302 304 305 307 308 308 309 308 307 306
235 238 242 247 251 256 259 261 264 266 269 273 276 280 283 286 290 292 294 296 297 298 299 301 301 301 302 302 302 301 301 301 301 302 303 304 305 306 307 307 307 306 305
236 238 243 247 251 256 260 263 265 268 270 274 277 281 284 287 290 292 294 296 297 299 300 302 302 302 302 302 302 302 302 301 301 302 302 303 304 305 306 306 306 305 305
238 241 245 248 252 256 260 264 266 269 272 275 278 282 285 287 290 293 295 297 298 300 301 302 303 302 302 303 303 303 303 302 301 301 301 302 303 304 304 305 306 306 305
239 242 246 248 251 254 258 263 266 270 273 277 280 282 285 288 290 293 295 297 298 299 300 301 301 301 300 301 301 301 301 301 300 300 301 301 302 302 303 305 306 306 305
239 243 245 247 249 251 255 260 265 270 273 276 279 282 284 286 289 292 295 297 298 299 300 300 300 300 299 299 298 298 298 298 299 299 300 301 302 303 304 305 306 306 305
239 243 245 246 248 249 251 256 262 267 271 275 279 282 284 287 290 293 295 297 298 300 301 301 300 300 299 298 297 297 297 298 299 300 301 301 302 303 304 305 306 305 304
239 242 244 246 248 249 251 254 259 265 270 276 280 283 286 289 291 294 295 297 299 300 301 301 301 300 299 298 297 297 297 298 300 301 301 303 303 303 304 305 305 304 303
238 241 244 246 249 251 253 256 259 264 270 276 280 283 287 290 293 294 296 297 298 299 300 300 299 300 299 298 297 297 297 298 299 301 302 304 304 304 305 305 305 304 302
237 241 244 246 250 254 257 259 262 266 272 276 280 284 287 290 292 294 296 297 297 298 298 298 297 297 297 297 296 296 296 297 298 300 301 303 304 305 306 305 305 304 304
237 240 245 248 252 256 259 263 266 270 274 277 280 284 286 289 291 292 294 295 295 295 295 295 295 294 294 294 294 294 295 296 298 299 300 302 303 304 304 304 304 304 304
237 240 245 249 254 258 262 266 270 273 276 278 281 283 285 287 289 290 292 292 292 292 292 291 291 291 290 290 291 291 293 294 296 297 298 300 301 302 304 304 304 304 304
238 241 245 250 255 260 264 268 271 274 276 279 281 284 285 286 287 288 289 289 289 289 288 288 287 286 286 287 287 288 289 291 293 295 296 297 299 301 302 303 304 304 304
237 242 246 251 255 260 264 267 271 274 277 279 282 284 285 286 287 287 287 287 287 287 286 285 284 284 283 283 284 285 287 289 291 292 294 296 297 299 300 301 303 303 303
237 241 246 250 255 259 263 267 270 273 276 279 281 283 284 285 286 286 285 286 286 285 284 283 282 281 281 282 283 283 285 287 289 290 292 294 296 297 298 299 300 301 301
238 242 246 250 254 259 262 266 269 272 275 277 280 281 282 284 285 286 285 284 284 284 282 282 281 280 280 280 281 282 283 285 287 288 290 292 293 294 296 297 298 298 298
239 242 246 250 254 258 261 265 268 271 274 276 278 280 281 283 284 285 284 284 283 282 281 280 280 279 279 279 279 281 282 284 285 286 288 290 291 292 293 294 295 296 296
240 243 246 250 254 258 261 265 268 271 273 275 277 279 281 282 283 283 283 283 282 282 281 280 279 278 277 277 278 279 280 282 283 284 285 286 288 289 291 292 293 294 294
241 244 247 250 253 257 261 264 268 271 273 275 277 279 280 281 282 283 283 283 283 282 281 280 279 278 277 277 277 278 278 279 281 283 283 284 285 286 288 289 290 291 292
242 245 248 250 253 257 260 264 267 270 272 274 276 278 280 281 282 283 283 283 282 282 281 279 278 278 278 277 277 278 278 278 279 281 282 282 283 284 285 286 287 288 289
243 246 248 250 253 256 259 262 265 268 270 273 276 278 280 281 281 281 282 282 282 281 280 279 278 278 278 277 277 277 277 278 279 280 280 281 282 282 283 284 285 286 286
244 247 249 251 254 256 259 261 264 267 269 272 275 278 279 280 281 281 281 281 281 281 280 279 278 278 277 277 277 277 277 278 278 278 278 279 280 281 282 282 283 284 284
246 248 250 251 254 256 258 261 264 267 270 272 274 276 277 279 280 281 281 281 281 281 281 280 279 278 278 277 277 278 278 277 276 277 278 279 279 280 281 281 281 282 282
245 248 249 251 253 256 259 262 265 267 270 272 273 275 276 278 279 280 281 281 281 281 281 280 280 279 278 278 277 277 277 276 276 276 277 278 279 279 279 279 280 281 281
246 248 250 252 254 256 259 262 265 268 270 272 273 275 276 277 279 279 280 280 280 281 281 280 280 279 278 278 277 277 276 276 276 276 276 277 277 278 278 279 280 281 281
247 248 250 253 255 257 260 262 265 268 270 272 273 275 276 277 279 280 280 280 280 280 280 280 279 279 278 277 276 275 275 275 275 275 275 275 276 277 277 278 279 280 280
Height
5875 5876 5878 5879 5881 5882 5883 5884 5885 5886 5886 5887 5887 5888 5888 5888 5889 5889 5889 5889 5889 5889 5889 5889 5888 5888 5887 5887 5887 5886 5886 5885 5885 5884 5884 5883 5882 5882 5881 5880 5880 5879 5878
5873 5874 5876 5878 5879 5880 5881 5882 5883 5884 5885 5885 5886 5886 5886 5887 5887 5887 5887 5887 5887 5887 5887 5887 5886 5886 5885 5885 5884 5884 5883 5883 5882 5882 5881 5881 5880 5879 5879 5878 5877 5876 5875
5871 5873 5874 5876 5877 5878 5879 5880 5881 5882 5882 5883 5884 5884 5884 5885 5885 5885 5885 5885 5885 5885 5885 5885 5884 5884 5883 5883 5882 5881 5881 5880 5880 5879 5879 5878 5878 5877 5876 5875 5874 5874 5873
5869 5871 5872 5874 5875 5876 5877 5878 5879 5880 5880 5881 5882 5882 5882 5883 5883 5883 5883 5883 5883 5883 5883 5883 5882 5882 5881 5881 5880 5879 5879 5878 5878 5877 5876 5876 5875 5874 5873 5872 5872 5871 5870
5866 5868 5870 5871 5873 5874 5875 5876 5877 5878 5878 5879 5879 5880 5880 5881 5881 5881 5881 5881 5881 5881 5881 5880 5880 5879 5879 5878 5878 5877 5876 5876 5875 5875 5874 5873 5872 5871 5870 5869 5868 5868 5867
5864 5866 5867 5869 5870 5872 5873 5874 5875 5875 5876 5877 5877 5878 5878 5879 5879 5879 5879 5879 5879 5878 5878 5878 5877 5877 5876 5875 5875 5874 5873 5873 5872 5872 5871 5870 5869 5868 5867 5866 5865 5865 5864
5861 5863 5865 5866 5868 5869 5870 5871 5872 5873 5874 5875 5875 5876 5876 5876 5876 5876 5876 5876 5876 5876 5875 5875 5874 5874 5873 5872 5872 5871 5870 5870 5869 5868 5867 5867 5866 5865 5864 5863 5862 5861 5861
5858 5860 5861 5863 5864 5866 5868 5869 5870 5871 5872 5872 5873 5873 5873 5874 5874 5874 5874 5873 5873 5873 5872 5872 5871 5870 5870 5869 5868 5868 5867 5866 5866 5865 5864 5863 5862 5862 5861 5860 5859 5858 5857
5854 5856 5857 5859 5861 5863 5864 5866 5867 5868 5869 5870 5870 5870 5870 5871 5871 5871 5870 5870 5870 5869 5869 5868 5868 5867 5867 5866 5865 5864 5864 5863 5863 5862 5861 5860 5859 5858 5857 5856 5855 5855 5854
5850 5852 5854 5856 5857 5859 5861 5862 5864 5865 5866 5867 5867 5867 5867 5867 5867 5867 5867 5867 5866 5866 5866 5865 5865 5864 5863 5863 5862 5861 5860 5860 5859 5859 5857 5857 5856 5855 5854 5853 5852 5851 5850
5845 5848 5850 5852 5854 5856 5857 5859 5860 5861 5862 5863 5864 5864 5864 5864 5864 5864 5864 5864 5863 5863 5863 5862 5862 5861 5860 5859 5859 5858 5857 5857 5856 5855 5854 5853 5852 5851 5850 5849 5848 5847 5846
5841 5843 5845 5848 5850 5852 5854 5855 5856 5857 5858 5859 5860 5860 5861 5861 5861 5861 5860 5860 5860 5860 5859 5859 5858 5858 5857 5856 5856 5855 5854 5854 5853 5852 5851 5850 5849 5848 5847 5845 5844 5843 5842
5836 5839 5841 5844 5846 5848 5849 5851 5852 5853 5854 5855 5855 5856 5857 5857 5857 5857 5857 5856 5856 5856 5855 5855 5854 5854 5853 5853 5852 5851 5850 5850 5849 5848 5847 5846 5845 5844 5843 5841 5840 5839 5837
5831 5834 5837 5839 5841 5843 5845 5846 5847 5849 5849 5850 5851 5852 5852 5853 5853 5853 5853 5852 5852 5852 5851 5851 5850 5850 5849 5849 5848 5847 5846 5846 5845 5844 5843 5842 5841 5839 5838 5837 5835 5834 5833
5827 5830 5832 5834 5837 5838 5840 5841 5842 5844 5845 5845 5846 5847 5847 5848 5848 5848 5848 5848 5848 5847 5847 5846 5846 5845 5845 5844 5843 5843 5842 5841 5841 5840 5839 5837 5836 5835 5833 5832 5831 5829 5828
5821 5824 5827 5829 5831 5833 5835 5836 5837 5839 5840 5840 5841 5841 5842 5842 5842 5842 5842 5843 5842 5842 5842 5841 5840 5840 5840 5839 5838 5838 5837 5836 5835 5835 5834 5832 5831 5830 5828 5827 5825 5824 5822
5815 5819 5821 5824 5826 5828 5829 5831 5832 5833 5834 5835 5836 5836 5836 5837 5837 5837 5837 5837 5836 5836 5836 5835 5835 5834 5834 5833 5832 5832 5831 5830 5830 5829 5828 5827 5826 5824 5823 5821 5820 5818 5817
5810 5813 5815 5818 5820 5822 5823 5825 5826 5827 5828 5829 5830 5830 5830 5830 5830 5831 5830 5830 5830 5829 5829 5829 5828 5827 5827 5826 5826 5825 5824 5824 5823 5822 5822 5821 5819 5818 5816 5815 5814 5812 5810
5804 5807 5809 5812 5814 5816 5817 5818 5820 5821 5822 5823 5823 5824 5824 5824 5824 5824 5824 5823 5823 5822 5822 5822 5821 5820 5819 5819 5818 5817 5817 5816 5815 5815 5814 5813 5812 5811 5809 5808 5806 5805 5803
5798 5801 5803 5806 5808 5809 5811 5812 5814 5815 5815 5816 5816 5816 5817 5817 5816 5816 5816 5815 5815 5815 5814 5813 5812 5812 5811 5810 5809 5809 5808 5808 5807 5806 5805 5804 5804 5803 5801 5800 5798 5797 5795
5791 5794 5797 5799 5801 5803 5804 5806 5807 5808 5808 5809 5809 5809 5809 5809 5808 5808 5808 5807 5806 5806 5805 5804 5803 5803 5802 5801 5800 5799 5799 5798 5798 5797 5795 5794 5794 5793 5792 5791 5790 5788 5786
5785 5787 5790 5792 5794 5796 5797 5799 5800 5801 5801 5802 5802 5802 5801 5800 5799 5799 5799 5798 5797 5796 5796 5795 5794 5793 5792 5791 5790 5788 5788 5789 5788 5786 5785 5784 5783 5782 5781 5781 5780 5778 5777
5778 5780 5783 5785 5787 5788 5790 5791 5792 5793 5794 5794 5794 5794 5793 5792 5791 5790 5789 5788 5787 5787 5786 5785 5784 5783 5781 5780 5779 5778 5777 5777 5776 5776 5774 5773 5772 5771 5770 5769 5768 5767 5766
5770 5773 5775 5777 5779 5781 5782 5783 5784 5785 5786 5786 5786 5785 5784 5783 5782 5781 5780 5778 5777 5776 5775 5774 5772 5771 5770 5768 5767 5766 5765 5764 5763 5763 5763 5762 5760 5760 5759 5757 5756 5755 5754
5762 5765 5767 5769 5771 5773 5774 5775 5775 5776 5777 5777 5776 5776 5775 5774 5773 5771 5770 5768 5767 5765 5764 5762 5760 5759 5757 5756 5754 5753 5751 5750 5749 5749 5749 5749 5748 5747 5746 5745 5743 5742 5741
5753 5756 5759 5761 5763 5765 5766 5766 5767 5768 5768 5768 5767 5766 5765 5764 5763 5762 5760 5758 5756 5754 5752 5750 5748 5746 5744 5742 5740 5739 5738 5737 5736 5734 5734 5734 5734 5733 5732 5731 5730 5729 5728